Location: Franzen
(48.6167°N, 15.3833°E)
Time: 09:03:27
(UTC+00:00)

Lacrosse 5 rocket - Pass Details

Date: 22 April 2021
Orbit: 460 x 634 km, 57.0° (Epoch: 16 May)

Event Time Altitude Azimuth Distance (km) Brightness Sun altitude
Rises 22:21:31 0° 303° (WNW) 2,804 5.5 -28.4°
Reaches altitude 10° 22:23:46 10° 299° (WNW) 1,928 4.5 -28.4°
Enters shadow 22:25:37 24° 290° (WNW) 1,259 3.3 -28.5°
